Allen's Corners, Ontario

2:53 PM EDT on October 19, 2017 (GMT -0400)
Allen's Corners

Weather History for 71171 - September, 2013

Change the Weather History Date:

Friday, September 6, 2013

  Actual Average Record
Temperature  
Mean Temperature 58 °F -  
Max Temperature 72 °F - - ()
Min Temperature 45 °F - - ()
Degree Days  
Heating Degree Days 6    
Growing Degree Days 8 (Base 50)    
Moisture  
Dew Point 44 °F    
Average Humidity 58    
Maximum Humidity 84    
Minimum Humidity 34    
Precipitation  
Precipitation 0.00 in - - ()
Sea Level Pressure  
Sea Level Pressure 30.19 in    
Wind  
Wind Speed 5 mph ()    
Max Wind Speed 10 mph    
Max Gust Speed -    
T = Trace of Precipitation, MM = Missing Value Source: Averaged Metar Reports

Daily Weather History Graph

Daily Weather History Graph

Search for Another Location

Airport or City:

Trip Planner

Search our weather history database for the weather conditions in past years. The results will help you decide how hot, cold, wet, or windy it might be!

Date:

Astronomy

Sep. 06, 2013 Rise Set
Actual Time 6:48 AM EDT 7:44 PM EDT
Civil Twilight 6:19 AM EDT 8:12 PM EDT
Nautical Twilight 5:44 AM EDT 8:47 PM EDT
Astronomical Twilight 5:08 AM EDT 9:23 PM EDT
Moon 8:02 AM EDT (9/6) 8:03 PM EDT (9/6)
Length of Visible Light 13h 53m
Length of Day
12h 55m
New Moon, 1% of the Moon is Illuminated
Sep 6
New Moon
Sep 12
First Quarter
Sep 19
Full
Sep 26
Last Quarter
Oct 4
New

Hourly Weather History & Observations

Time (EDT) Temp. Dew Point Humidity Pressure Visibility Wind Dir Wind Speed Gust Speed Precip Events Conditions
12:00 AM 57.2 °F 38.5 °F 50% 30.22 in - NE 6.9 mph - N/A   Unknown
1:00 AM 57.0 °F 39.7 °F 52% 30.22 in - NE 5.8 mph - N/A   Unknown
2:00 AM 48 °F 41 °F 68% 30.23 in - SW 2.3 mph - -  
2:00 AM 48.2 °F 40.8 °F 76% 30.23 in - SW 2.3 mph - N/A   Unknown
3:00 AM 47.5 °F 41.4 °F 79% 30.23 in - South 3.5 mph - N/A   Unknown
4:00 AM 47.5 °F 41.2 °F 79% 30.23 in - SW 3.5 mph - N/A   Unknown
5:00 AM 47.1 °F 41.4 °F 80% 30.24 in - WSW 3.5 mph - N/A   Unknown
6:00 AM 46.9 °F 42.3 °F 84% 30.25 in - WSW 3.5 mph - N/A   Unknown
7:00 AM 47.8 °F 42.1 °F 80% 30.25 in - SW 3.5 mph - N/A   Unknown
8:00 AM 50 °F 44 °F 72% 30.27 in - SSW 3.5 mph - -  
8:00 AM 50.4 °F 43.7 °F 78% 30.27 in - SSW 3.5 mph - N/A   Unknown
9:00 AM 58.3 °F 44.8 °F 61% 30.26 in - SW 2.3 mph - N/A   Unknown
10:00 AM 61.3 °F 45.1 °F 55% 30.27 in - West 3.5 mph - N/A   Unknown
11:00 AM 63.3 °F 38.8 °F 40% 30.25 in - West 5.8 mph - N/A   Unknown
12:00 PM 65.5 °F 36.0 °F 34% 30.24 in - West 5.8 mph - N/A   Unknown
1:00 PM 64.9 °F 42.3 °F 44% 30.21 in - NNE 6.9 mph - N/A   Unknown
2:00 PM 66 °F 44 °F 34% 30.19 in - NE 5.8 mph - -  
2:00 PM 66.0 °F 44.4 °F 46% 30.19 in - NE 5.8 mph - N/A   Unknown
3:00 PM 66.0 °F 43.3 °F 44% 30.16 in - NE 5.8 mph - N/A   Unknown
4:00 PM 70.5 °F 44.6 °F 39% 30.14 in - SW 9.2 mph - N/A   Unknown
5:00 PM 70.0 °F 47.3 °F 44% 30.13 in - SW 10.4 mph - N/A   Unknown
6:00 PM 69.4 °F 48.6 °F 47% 30.13 in - SW 8.1 mph - N/A   Unknown
7:00 PM 65.8 °F 49.3 °F 55% 30.12 in - SSW 8.1 mph - N/A   Unknown
8:00 PM 63 °F 50 °F 52% 30.10 in - SW 8.1 mph - -  
8:00 PM 63.0 °F 49.6 °F 62% 30.10 in - SW 8.1 mph - N/A   Unknown
9:00 PM 63.0 °F 48.7 °F 60% 30.09 in - SW 9.2 mph - N/A   Unknown
10:00 PM 60.8 °F 47.5 °F 62% 30.07 in - SSW 6.9 mph - N/A   Unknown
11:00 PM 59.5 °F 45.5 °F 60% 30.06 in - SW 6.9 mph - N/A   Unknown